Location: Antioch Church
(34.9543°N, 88.5145°W)
Time: 22:39:30
(UTC+00:00)

Meteor 1-25 Rocket - Pass Details

Date: 11 December 2019
Orbit: 838 x 890 km, 81.2° (Epoch: 18 January)

Event Time Altitude Azimuth Distance (km) Brightness Sun altitude
Rises 10:36:14 0° 181° (S) 3,381 7.5 -27.0°
Reaches altitude 10° 10:38:37 10° 179° (S) 2,454 6.7 -26.5°
Maximum altitude 10:44:09 71° 96° (E) 898 4.4 -25.4°
Drops below altitude 10° 10:49:47 10° 13° (NNE) 2,500 6.7 -24.2°
Sets 10:52:15 0° 11° (NNE) 3,449 7.4 -23.8°
